N8YZF Weather Reports


Display with metric or nautical units.
time (UTC)temp
F
wind
direction
speed
MPH
gust
MPH
rain 1hr
in
rain 24hr
in
rain mn
in
humidity
%
barometer
mb
20260906222309 77 79 1.0 3.0 0.00 0.00 0.00 49 1017.6
20260906221810 77 84 1.0 3.0 0.00 0.00 0.00 51 1017.6
20260906221622 77 27 1.0 4.0 0.00 0.00 0.00 51 1017.8
20260906220809 77 27 1.0 4.0 0.00 0.00 0.00 50 1017.8
20260906220628 77 12 1.0 4.0 0.00 0.00 0.00 49 1017.8
20260906220123 76 55 1.0 4.0 0.00 0.00 0.00 49 1017.8
20260906215312 76 135 2.0 5.0 0.00 0.00 0.00 49 1017.8
20260906214811 77 111 2.0 5.0 0.00 0.00 0.00 48 1017.8
20260906214308 77 355 2.0 5.0 0.00 0.00 0.00 48 1017.8
20260906213808 77 68 1.0 4.0 0.00 0.00 0.00 50 1017.8
20260906213307 77 81 1.0 3.0 0.00 0.00 0.00 48 1017.8
20260906212805 77 66 1.0 3.0 0.00 0.00 0.00 49 1017.8
20260906212621 77 31 0.0 2.0 0.00 0.00 0.00 49 1017.8
20260906212121 77 26 1.0 4.0 0.00 0.00 0.00 49 1017.8
20260906211614 77 28 2.0 7.0 0.00 0.00 0.00 48 1017.8
20260906211108 77 56 2.0 8.0 0.00 0.00 0.00 50 1017.8
20260906210248 77 342 2.0 8.0 0.00 0.00 0.00 48 1017.8
20260906205748 77 109 2.0 6.0 0.00 0.00 0.00 48 1017.6
20260906205246 77 137 2.0 6.0 0.00 0.00 0.00 50 1017.6
20260906205110 78 329 2.0 7.0 0.00 0.00 0.00 48 1017.7
20260906204601 78 355 3.0 7.0 0.00 0.00 0.00 48 1017.8
20260906203738 78 78 2.0 7.0 0.00 0.00 0.00 47 1017.8
20260906203236 78 28 2.0 5.0 0.00 0.00 0.00 50 1017.8
20260906202739 78 336 2.0 6.0 0.00 0.00 0.00 49 1017.7
20260906202234 78 147 2.0 7.0 0.00 0.00 0.00 47 1017.7
20260906201729 78 111 2.0 7.0 0.00 0.00 0.00 48 1017.7
20260906201224 78 65 2.0 6.0 0.00 0.00 0.00 49 1017.8
20260906200717 78 109 4.0 9.0 0.00 0.00 0.00 49 1017.9
20260906200212 78 15 3.0 9.0 0.00 0.00 0.00 48 1017.9
20260906195711 78 91 1.0 8.0 0.00 0.00 0.00 49 1017.9
20260906195210 78 355 1.0 4.0 0.00 0.00 0.00 49 1017.9
20260906195025 78 5 2.0 7.0 0.00 0.00 0.00 49 1017.9
20260906194211 78 51 3.0 8.0 0.00 0.00 0.00 50 1018.0
20260906193710 78 101 3.0 8.0 0.00 0.00 0.00 48 1018.0
20260906193208 78 184 2.0 6.0 0.00 0.00 0.00 49 1018.0
20260906193028 78 315 3.0 6.0 0.00 0.00 0.00 49 1018.0
20260906192208 78 63 3.0 7.0 0.00 0.00 0.00 48 1018.0
20260906191705 78 105 3.0 7.0 0.00 0.00 0.00 50 1018.1
20260906191205 78 98 2.0 6.0 0.00 0.00 0.00 49 1018.0
20260906191024 78 89 2.0 7.0 0.00 0.00 0.00 48 1018.0
20260906190205 78 71 2.0 7.0 0.00 0.00 0.00 49 1018.0
20260906190018 78 101 2.0 6.0 0.00 0.00 0.00 50 1018.1
20260906185201 77 44 3.0 7.0 0.00 0.00 0.00 52 1018.1
20260906185016 77 144 3.0 7.0 0.00 0.00 0.00 50 1018.1
20260906184200 77 91 3.0 11.0 0.00 0.00 0.00 52 1018.3
20260906183658 77 102 3.0 11.0 0.00 0.00 0.00 51 1018.3
20260906183159 77 127 3.0 7.0 0.00 0.00 0.00 51 1018.3
20260906182701 77 90 3.0 9.0 0.00 0.00 0.00 49 1018.4
20260906182158 77 145 3.0 9.0 0.00 0.00 0.00 49 1018.4
20260906181659 78 63 3.0 7.0 0.00 0.00 0.00 49 1018.4
20260906181200 78 32 2.0 7.0 0.00 0.00 0.00 50 1018.4
20260906180655 77 49 2.0 7.0 0.00 0.00 0.00 51 1018.4
20260906180155 77 91 2.0 7.0 0.00 0.00 0.00 52 1018.4
20260906180017 77 74 3.0 6.0 0.00 0.00 0.00 50 1018.5
20260906175151 77 47 2.0 6.0 0.00 0.00 0.00 51 1018.5
20260906175010 77 27 2.0 5.0 0.00 0.00 0.00 52 1018.5
20260906174154 77 350 2.0 5.0 0.00 0.00 0.00 52 1018.7
20260906173653 76 5 2.0 6.0 0.00 0.00 0.00 52 1018.6
20260906173151 76 309 3.0 7.0 0.00 0.00 0.00 55 1018.6
20260906173004 76 71 3.0 7.0 0.00 0.00 0.00 53 1018.5
20260906172150 76 103 2.0 7.0 0.00 0.00 0.00 55 1018.5
20260906171647 76 61 3.0 7.0 0.00 0.00 0.00 54 1018.5
20260906171139 76 46 2.0 6.0 0.00 0.00 0.00 54 1018.8
20260906170639 75 99 2.0 5.0 0.00 0.00 0.00 56 1018.8
20260906170139 76 71 2.0 5.0 0.00 0.00 0.00 57 1018.8
20260906165631 75 0 2.0 5.0 0.00 0.00 0.00 58 1018.9
20260906165127 76 0 2.0 5.0 0.00 0.00 0.00 56 1018.9
20260906164608 76 5 2.0 6.0 0.00 0.00 0.00 55 1018.9
20260906164106 76 67 2.0 6.0 0.00 0.00 0.00 54 1019.0
20260906163611 76 304 2.0 6.0 0.00 0.00 0.00 58 1019.0
20260906163108 75 275 2.0 6.0 0.00 0.00 0.00 57 1019.0
20260906162608 75 324 2.0 6.0 0.00 0.00 0.00 57 1019.3
20260906162108 75 92 2.0 6.0 0.00 0.00 0.00 59 1019.3
20260906161916 75 14 2.0 6.0 0.00 0.00 0.00 60 1019.2
20260906161423 75 294 2.0 6.0 0.00 0.00 0.00 59 1019.3
20260906160603 74 30 2.0 6.0 0.00 0.00 0.00 63 1019.3
20260906160436 74 86 2.0 7.0 0.00 0.00 0.00 61 1019.2
20260906155601 73 240 3.0 7.0 0.00 0.00 0.00 61 1019.2
20260906155105 73 5 3.0 7.0 0.00 0.00 0.00 63 1019.2
20260906154910 73 30 3.0 6.0 0.00 0.00 0.00 63 1019.2
20260906154058 73 87 2.0 6.0 0.00 0.00 0.00 63 1019.2
20260906153911 73 87 3.0 7.0 0.00 0.00 0.00 63 1019.2
20260906153057 73 55 3.0 7.0 0.00 0.00 0.00 63 1019.2
20260906152557 73 30 2.0 7.0 0.00 0.00 0.00 63 1019.1
20260906152412 73 74 2.0 5.0 0.00 0.00 0.00 64 1019.1
20260906151911 73 49 2.0 5.0 0.00 0.00 0.00 67 1019.1
20260906151050 73 15 2.0 5.0 0.00 0.00 0.00 66 1018.9
20260906150546 72 0 1.0 5.0 0.00 0.00 0.00 68 1018.9
20260906150058 72 70 2.0 4.0 0.00 0.00 0.00 69 1018.8
20260906145542 71 123 2.0 6.0 0.00 0.00 0.00 72 1018.5
20260906145036 71 99 2.0 6.0 0.00 0.00 0.00 69 1018.5
20260906144536 70 115 1.0 5.0 0.00 0.00 0.00 72 1018.4
20260906144029 70 355 2.0 7.0 0.00 0.00 0.00 74 1018.4
20260906143840 69 98 2.0 7.0 0.00 0.00 0.00 72 1018.4
20260906143026 69 98 1.0 4.0 0.00 0.00 0.00 74 1018.4
20260906142520 69 49 1.0 3.0 0.00 0.00 0.00 77 1018.3
20260906142022 69 49 1.0 3.0 0.00 0.00 0.00 77 1018.3
20260906141514 68 40 1.0 4.0 0.00 0.00 0.00 78 1018.2
20260906141012 68 5 1.0 4.0 0.00 0.00 0.00 79 1018.3
20260906140512 67 11 1.0 2.0 0.00 0.00 0.00 80 1018.3
20260906140136 66 99 1.0 4.0 0.00 0.00 0.00 81 1018.1
20260906140108 67 78 1.0 4.0 0.00 0.00 0.00 82 1018.1
20260906135004 65 105 1.0 3.0 0.00 0.00 0.00 84 1018.0
20260906134455 64 39 1.0 4.0 0.00 0.00 0.00 86 1018.1
20260906133950 64 90 1.0 4.0 0.00 0.00 0.00 89 1018.0
20260906133444 63 16 1.0 5.0 0.00 0.00 0.00 90 1018.0
20260906133244 62 50 1.0 5.0 0.00 0.00 0.00 93 1017.9
20260906132441 62 24 1.0 3.0 0.00 0.00 0.00 95 1017.9
20260906131936 61 40 1.0 2.0 0.00 0.00 0.00 97 1017.8
20260906131410 60 33 1.0 2.0 0.00 0.00 0.00 97 1017.9
20260906130911 60 58 1.0 4.0 0.00 0.00 0.00 97 1017.9
20260906130411 60 39 1.0 4.0 0.00 0.00 0.00 98 1017.8
20260906130224 59 5 1.0 2.0 0.00 0.00 0.00 98 1017.7
20260906125405 58 5 1.0 4.0 0.00 0.00 0.00 98 1017.6
20260906125220 57 260 0.0 4.0 0.00 0.00 0.00 98 1017.6
20260906124700 57 355 0.0 0.0 0.00 0.00 0.00 98 1017.5
20260906124205 56 105 0.0 0.0 0.00 0.00 0.00 98 1017.5
20260906123358 55 105 0.0 0.0 0.00 0.00 0.00 97 1017.4
20260906122849 54 105 0.0 0.0 0.00 0.00 0.00 97 1017.2
20260906122350 53 105 0.0 0.0 0.00 0.00 0.00 97 1017.2
20260906121847 52 105 0.0 0.0 0.00 0.01 0.00 97 1017.0
20260906121625 51 105 0.0 0.0 0.00 0.01 0.00 97 1016.7
20260906120813 51 105 0.0 0.0 0.00 0.01 0.00 96 1016.6
20260906120308 51 105 0.0 0.0 0.00 0.01 0.00 96 1016.6
20260906115819 51 105 0.0 0.0 0.00 0.01 0.00 96 1016.4
20260906115306 51 105 0.0 0.0 0.00 0.02 0.00 96 1016.4
20260906114748 51 105 0.0 0.0 0.00 0.04 0.00 96 1016.4
20260906114242 51 105 0.0 0.0 0.00 0.04 0.00 96 1016.2
20260906113736 50 105 0.0 0.0 0.00 0.04 0.00 96 1016.2
20260906113231 51 105 0.0 0.0 0.00 0.04 0.00 96 1016.2
20260906112715 51 105 0.0 0.0 0.00 0.04 0.00 96 1016.0
20260906112514 51 105 0.0 0.0 0.00 0.04 0.00 96 1016.0
20260906111645 51 105 0.0 0.0 0.00 0.04 0.00 96 1016.0
20260906111139 51 105 0.0 0.0 0.00 0.04 0.00 96 1016.0
20260906110634 51 105 0.0 0.0 0.00 0.04 0.00 96 1016.0
20260906110129 51 105 0.0 0.0 0.00 0.04 0.00 96 1016.0
20260906105616 51 105 0.0 0.0 0.00 0.04 0.00 96 1016.1
20260906105105 51 105 0.0 0.0 0.00 0.04 0.00 96 1016.1
20260906104902 51 105 0.0 0.0 0.00 0.04 0.00 96 1016.1
20260906104051 51 105 0.0 0.0 0.00 0.04 0.00 96 1016.1
20260906103543 51 105 0.0 0.0 0.00 0.04 0.00 96 1016.1
20260906103044 51 105 0.0 0.0 0.00 0.04 0.00 96 1016.1
20260906102512 52 105 0.0 0.0 0.00 0.04 0.00 96 1016.0
20260906102004 52 105 0.0 0.0 0.00 0.04 0.00 96 1016.0
20260906101831 52 105 0.0 0.0 0.00 0.04 0.00 96 1015.9
20260906100948 52 105 0.0 0.0 0.00 0.04 0.00 96 1015.9
20260906100444 52 105 0.0 0.0 0.00 0.04 0.00 95 1015.9
20260906095940 52 105 0.0 0.0 0.00 0.04 0.00 95 1015.9
20260906095411 52 105 0.0 0.0 0.00 0.04 0.00 96 1015.9
20260906094856 52 105 0.0 0.0 0.00 0.04 0.00 95 1015.9
20260906094353 52 105 0.0 0.0 0.00 0.04 0.00 95 1015.7
20260906094150 52 105 0.0 0.0 0.00 0.04 0.00 95 1015.7
20260906093335 53 105 0.0 0.0 0.00 0.04 0.00 95 1015.7
20260906092828 53 105 0.0 0.0 0.00 0.04 0.00 96 1015.6
20260906092324 53 105 0.0 0.0 0.00 0.04 0.00 96 1015.6
20260906091819 53 105 0.0 0.0 0.00 0.04 0.00 96 1015.6
20260906091313 53 105 0.0 0.0 0.00 0.04 0.00 96 1015.7
20260906091113 53 105 0.0 0.0 0.00 0.04 0.00 95 1015.7
20260906090300 53 105 0.0 0.0 0.00 0.04 0.00 95 1015.7
20260906085800 53 105 0.0 0.0 0.00 0.04 0.00 95 1015.4
20260906085254 53 105 0.0 0.0 0.00 0.04 0.00 95 1015.4
20260906084747 53 105 0.0 0.0 0.00 0.04 0.00 95 1015.4
20260906084243 53 105 0.0 0.0 0.00 0.04 0.00 95 1015.3
20260906083739 53 105 0.0 0.0 0.00 0.04 0.00 95 1015.3
20260906083232 53 105 0.0 0.0 0.00 0.04 0.00 95 1015.3
20260906082736 53 105 0.0 0.0 0.00 0.04 0.00 95 1015.1
20260906082215 53 105 0.0 0.0 0.00 0.04 0.00 95 1015.1
20260906081707 54 105 0.0 0.0 0.00 0.04 0.00 95 1015.1
20260906081208 54 106 0.0 0.0 0.00 0.04 0.00 95 1015.2
20260906080709 54 106 0.0 0.0 0.00 0.04 0.00 95 1015.2
20260906080204 54 105 0.0 0.0 0.00 0.04 0.00 95 1015.2
20260906075700 54 105 0.0 0.0 0.00 0.04 0.00 95 1015.0
20260906075158 54 105 0.0 0.0 0.00 0.04 0.00 95 1015.0
20260906074701 54 105 0.0 0.0 0.00 0.04 0.00 95 1015.0
20260906074156 54 105 0.0 0.0 0.00 0.04 0.00 95 1015.2
20260906073648 55 106 0.0 0.0 0.00 0.04 0.00 95 1015.2
20260906073501 55 105 0.0 0.0 0.00 0.04 0.00 95 1015.3
20260906072648 55 105 0.0 0.0 0.00 0.04 0.00 95 1015.3
20260906072145 55 105 0.0 0.0 0.00 0.04 0.00 94 1015.3
20260906071635 55 106 0.0 0.0 0.00 0.04 0.00 94 1015.4
20260906071134 55 105 0.0 0.0 0.00 0.04 0.00 94 1015.3
20260906070942 55 106 0.0 0.0 0.00 0.04 0.00 94 1015.3
20260906070119 55 105 0.0 0.0 0.00 0.04 0.00 94 1015.3
20260906065925 55 106 0.0 0.0 0.00 0.04 0.00 94 1015.3
20260906065103 55 105 0.0 0.0 0.00 0.04 0.00 93 1015.3
20260906064604 55 105 0.0 0.0 0.00 0.04 0.00 93 1015.3
20260906064103 56 105 0.0 0.0 0.00 0.04 0.00 93 1015.5
20260906063601 56 105 0.0 0.0 0.00 0.04 0.00 94 1015.5
20260906063102 56 106 0.0 0.0 0.00 0.04 0.00 94 1015.5
20260906062603 56 105 0.0 0.0 0.00 0.04 0.00 93 1015.5
20260906062057 56 105 0.0 0.0 0.00 0.04 0.00 93 1015.6
20260906061553 56 105 0.0 0.0 0.00 0.04 0.00 93 1015.6
20260906061051 56 105 0.0 0.0 0.00 0.04 0.00 93 1015.5
20260906060552 57 106 0.0 0.0 0.00 0.04 0.00 93 1015.5
20260906060104 57 106 0.0 0.0 0.00 0.04 0.00 93 1015.5
20260906055603 57 106 0.0 0.0 0.00 0.04 0.00 93 1015.6
20260906055050 57 105 0.0 0.0 0.00 0.04 0.00 93 1015.6
20260906054531 57 105 0.0 0.0 0.00 0.04 0.00 93 1015.6
20260906054019 57 105 0.0 0.0 0.00 0.04 0.00 92 1015.5
20260906053818 58 106 0.0 0.0 0.00 0.04 0.00 92 1015.6
20260906053001 58 106 0.0 0.0 0.00 0.04 0.00 92 1015.7
20260906052500 58 106 0.0 0.0 0.00 0.04 0.00 92 1015.7
20260906052317 58 106 0.0 0.0 0.00 0.04 0.00 92 1015.7
20260906051456 58 105 0.0 0.0 0.00 0.04 0.00 92 1015.3
20260906050958 58 105 0.0 0.0 0.00 0.04 0.00 91 1015.3
20260906050452 59 106 0.0 0.0 0.00 0.04 0.00 91 1015.3
20260906045952 59 105 0.0 0.0 0.00 0.04 0.00 91 1015.4
20260906045449 59 106 0.0 0.0 0.00 0.04 0.00 90 1015.5
20260906044949 59 106 0.0 0.0 0.00 0.04 0.00 90 1015.5
20260906044449 59 105 0.0 0.0 0.00 0.04 0.00 89 1015.3
20260906043950 60 106 0.0 0.0 0.00 0.04 0.00 89 1015.3
20260906043448 60 105 0.0 0.0 0.00 0.04 0.00 89 1015.4
20260906042947 60 106 0.0 0.0 0.00 0.04 0.00 89 1015.3
20260906042443 60 105 0.0 0.0 0.00 0.04 0.00 88 1015.3
20260906042252 61 105 0.0 0.0 0.00 0.04 0.00 88 1015.3
20260906041420 61 105 0.0 0.0 0.00 0.04 0.00 87 1015.2
20260906040914 61 105 0.0 0.0 0.00 0.04 0.00 87 1015.2
20260906040410 62 105 0.0 0.0 0.00 0.04 0.00 86 1015.3
20260906035905 62 106 0.0 0.0 0.00 0.04 0.04 86 1015.1
20260906035357 62 106 0.0 0.0 0.00 0.04 0.04 85 1015.1
20260906034849 63 105 0.0 0.0 0.00 0.04 0.04 85 1015.2
20260906034316 63 105 0.0 0.0 0.00 0.04 0.04 84 1015.2
20260906033816 63 105 0.0 2.0 0.00 0.04 0.04 84 1015.2
20260906033311 64 136 0.0 2.0 0.00 0.04 0.04 84 1015.2
20260906033118 64 136 0.0 2.0 0.00 0.04 0.04 83 1015.3
20260906032440 64 58 1.0 2.0 0.00 0.04 0.04 83 1015.3
20260906032411 64 136 1.0 2.0 0.00 0.04 0.04 83 1015.3
20260906031308 65 69 2.0 6.0 0.00 0.04 0.04 82 1015.4
20260906030852 65 69 2.0 6.0 0.00 0.04 0.04 82 1015.4
20260906025744 65 103 3.0 8.0 0.00 0.04 0.04 81 1015.2
20260906025241 65 355 3.0 8.0 0.00 0.04 0.04 81 1015.2
20260906024743 65 38 3.0 8.0 0.00 0.04 0.04 81 1015.2
20260906024242 66 134 2.0 6.0 0.00 0.04 0.04 81 1015.1
20260906023733 66 123 2.0 5.0 0.00 0.04 0.04 81 1015.1
20260906023551 66 92 2.0 5.0 0.00 0.04 0.04 81 1015.1
20260906022725 66 117 2.0 5.0 0.00 0.04 0.04 81 1014.9
20260906022220 66 203 2.0 6.0 0.00 0.04 0.04 82 1014.9
20260906021710 67 98 2.0 6.0 0.00 0.04 0.04 82 1014.9
20260906021211 67 161 1.0 5.0 0.00 0.04 0.04 82 1014.9
20260906020710 67 109 1.0 5.0 0.00 0.04 0.04 82 1014.9
20260906020523 67 119 2.0 7.0 0.00 0.04 0.04 82 1015.0
20260906015704 67 147 2.0 7.0 0.00 0.04 0.04 82 1014.6
20260906015202 67 137 2.0 5.0 0.00 0.04 0.04 83 1014.6
20260906014700 67 87 2.0 4.0 0.00 0.04 0.04 84 1014.6
20260906014158 66 333 2.0 6.0 0.00 0.04 0.04 85 1014.2
20260906013700 66 157 1.0 6.0 0.00 0.04 0.04 86 1014.1
20260906013148 66 83 0.0 3.0 0.00 0.04 0.04 87 1014.1
20260906012645 66 0 0.0 2.0 0.00 0.04 0.04 87 1013.5
20260906012142 66 0 0.0 2.0 0.00 0.04 0.04 86 1013.5
20260906011616 67 84 0.0 0.0 0.00 0.04 0.04 85 1013.5
20260906011410 67 84 0.0 0.0 0.00 0.04 0.04 85 1013.5
20260906010603 67 84 0.0 2.0 0.00 0.04 0.04 84 1013.5
20260906010106 67 84 0.0 2.0 0.00 0.04 0.04 84 1013.5
20260906005901 68 84 0.0 0.0 0.00 0.04 0.04 83 1013.7
20260906005049 68 84 0.0 0.0 0.00 0.04 0.04 82 1013.7
20260906004543 68 84 0.0 0.0 0.00 0.04 0.04 82 1013.7
20260906004344 69 84 0.0 0.0 0.00 0.04 0.04 81 1013.7
20260906003845 69 84 0.0 0.0 0.00 0.04 0.04 79 1013.8
20260906003038 69 84 0.0 0.0 0.00 0.04 0.04 78 1013.8
20260906002535 70 84 0.0 0.0 0.00 0.04 0.04 77 1013.8
20260906002034 71 84 0.0 0.0 0.00 0.04 0.04 75 1013.9
20260906001534 71 84 0.0 0.0 0.00 0.04 0.04 74 1013.9
20260906001018 72 84 0.0 0.0 0.00 0.04 0.04 73 1013.9
20260906000513 73 84 0.0 0.0 0.00 0.04 0.04 71 1013.9
20260906000313 74 84 0.0 0.0 0.00 0.04 0.04 70 1014.0
20260905235458 74 84 0.0 0.0 0.00 0.04 0.04 68 1014.1
20260905234951 75 84 0.0 0.0 0.00 0.04 0.04 67 1014.1
20260905234446 75 84 0.0 0.0 0.00 0.04 0.04 67 1014.2
20260905233941 76 84 0.0 1.0 0.00 0.04 0.04 65 1014.2
20260905233436 76 84 0.0 2.0 0.00 0.04 0.04 63 1014.2
20260905232924 76 81 0.0 2.0 0.00 0.04 0.04 62 1014.1
20260905232733 77 90 1.0 3.0 0.00 0.04 0.04 62 1014.1
20260905231909 77 90 1.0 4.0 0.00 0.04 0.04 61 1014.1
20260905231409 77 95 1.0 4.0 0.00 0.04 0.04 61 1014.2
20260905231221 76 35 1.0 2.0 0.00 0.04 0.04 62 1014.1
20260905230407 76 56 1.0 2.0 0.00 0.04 0.04 63 1014.1
20260905225905 76 51 0.0 2.0 0.00 0.04 0.04 64 1014.0
20260905225402 76 34 0.0 2.0 0.00 0.04 0.04 65 1014.0
20260905225030 76 32 0.0 1.0 0.00 0.04 0.04 62 1013.5
20260905224958 76 32 0.0 1.0 0.00 0.04 0.04 65 1014.0
20260905224202 77 32 0.0 2.0 0.00 0.04 0.04 61 1013.7
20260905223702 77 32 2.0 5.0 0.00 0.04 0.04 59 1013.7
20260905222851 78 78 3.0 8.0 0.00 0.04 0.04 59 1013.8
20260905222714 77 96 2.0 8.0 0.00 0.04 0.04 61 1013.8